[[{"header":{"parameterUnit":"m.s-1","parameterCategory":1,"la1":30.2991,"la2":30.254,"lo1":-89.0895,"lo2":-89.0444,"dy":0.0017,"dx":0.0017,"nx":28,"ny":28,"refTime":"2025-04-16T21:00:00:Z","depth":0,"parameterNumber":2,"parameterNumberName":"U-component_of_WINDS"},"data":[0,0,0,0,0,0,0,0,0,0,0,0,0,0,0,0,0,0,0,0,0,0,0,0,0,0,0,0,0,0,0,0,0,0,0,0,0,0,0,0,0,0,0,0,0,0,0,0,0,0,0,0,0,0,0,0,0,0,-0.8987,-0.8988,0,-0.9065,-0.9066,-0.9067,-0.9095,-0.9095,-0.9095,-0.9095,-0.9178,-0.918,-0.9183,0,0,0,0,0,0,0,0,0,0,0,0,0,-0.8866,-0.8868,-0.8987,-0.8988,-0.8989,-0.9065,-0.9066,-0.9067,-0.9095,-0.9095,-0.9095,-0.9095,-0.9177,-0.918,-0.9183,0,0,0,0,0,0,0,0,0,0,0,0,0,-0.8929,-0.8869,-0.8987,-0.9012,-0.9015,-0.9065,-0.9066,-0.9067,-0.9096,-0.9095,-0.9095,-0.9094,-0.9176,-0.918,-0.9184,-0.9215,0,0,-0.9195,-0.9196,0,0,0,0,0,0,0,0,-0.8925,-0.8933,-0.9007,-0.901,-0.9014,-0.907,-0.9054,-0.9117,-0.9096,-0.9065,-0.9095,-0.9094,-0.9143,-0.9149,-0.9165,-0.9218,-0.9222,-0.9195,-0.9197,-0.9199,-0.92,0,0,0,0,0,0,0,-0.8921,-0.893,-0.9018,-0.9008,-0.9012,-0.9021,-0.9029,-0.9066,-0.9105,-0.9068,-0.907,-0.9079,-0.9144,-0.9161,-0.9167,-0.9223,-0.9195,-0.9198,-0.9201,-0.9202,-0.9308,-0.9309,0,0,0,0,0,0,-0.8912,-0.8926,-0.9015,-0.902,-0.8968,-0.9023,-0.9033,-0.9052,-0.9105,-0.9112,-0.9079,-0.908,-0.9155,-0.9163,-0.917,-0.9211,-0.9199,-0.9202,-0.9205,-0.9308,-0.9308,-0.9309,0,0,0,0,0,0,-0.8909,-0.892,-0.9012,-0.8974,-0.8986,-0.9026,-0.9048,-0.9054,-0.9071,-0.9113,-0.9121,-0.9089,-0.9155,-0.9165,-0.9203,-0.9214,-0.9204,-0.9208,-0.9307,-0.9308,-0.9309,-0.9292,0,0,0,0,0,0,-0.8906,-0.8918,-0.8929,-0.8974,-0.8988,-0.9043,-0.9048,-0.9056,-0.9077,-0.9079,-0.9124,-0.9132,-0.9155,-0.9198,-0.9207,-0.9219,-0.921,-0.9306,-0.9307,-0.9308,-0.9292,-0.9292,-0.9292,0,0,0,0,0,-0.8901,-0.8922,-0.893,-0.894,-0.9003,-0.9043,-0.9052,-0.9078,-0.9077,-0.909,-0.9117,-0.913,-0.9211,-0.9201,-0.9212,-0.9225,-0.9306,-0.9307,-0.9308,-0.9291,-0.9292,-0.9292,0,0,0,0,0,0,-0.8879,-0.8928,-0.8938,-0.8973,-0.9004,-0.9048,-0.9064,-0.9077,-0.9109,-0.911,-0.9142,-0.9152,-0.9188,-0.9211,-0.9199,-0.9259,-0.9259,-0.9263,-0.9243,-0.9244,-0.9244,-0.9238,-0.9213,0,0,0,0,0,-0.8878,-0.8905,-0.8948,-0.8975,-0.899,-0.9024,-0.9043,-0.906,-0.9094,-0.9107,-0.9138,-0.9171,-0.9204,-0.9225,-0.9258,-0.9295,-0.9306,-0.9309,-0.931,-0.931,-0.9313,-0.9336,-0.9338,-0.9313,-0.9313,-0.9313,0,0,-0.8877,-0.8907,-0.8923,-0.8971,-0.8997,-0.9027,-0.9035,-0.9066,-0.9088,-0.9112,-0.9151,-0.9174,-0.9213,-0.9252,-0.927,-0.9271,-0.9322,-0.9312,-0.9311,-0.9314,-0.9337,-0.9339,-0.9341,-0.9314,-0.9314,-0.9314,0,0,-0.8889,-0.8914,-0.894,-0.8966,-0.9005,-0.9028,-0.9034,-0.9077,-0.9093,-0.9131,-0.9151,-0.9179,-0.9235,-0.9262,-0.9283,-0.9307,-0.9321,-0.9317,-0.9319,-0.9341,-0.9343,-0.9345,-0.9355,-0.9357,-0.932,-0.932,-0.932,0,-0.8883,-0.8926,-0.8952,-0.8982,-0.9004,-0.9026,-0.9054,-0.9078,-0.9126,-0.9141,-0.9141,-0.9213,-0.9241,-0.9286,-0.9292,-0.9308,-0.9318,-0.9312,-0.934,-0.9343,-0.9345,-0.9354,-0.9358,-0.9319,-0.9319,-0.9319,-0.9319,0,-0.8917,-0.8947,-0.8964,-0.9009,-0.9032,-0.9061,-0.9093,-0.9114,-0.9129,-0.9152,-0.9193,-0.9227,-0.9267,-0.928,-0.9295,-0.9328,-0.9328,-0.9334,-0.9335,-0.9346,-0.9356,-0.9359,-0.9318,-0.9318,-0.9319,-0.9319,0,0,-0.8918,-0.8977,-0.8982,-0.9003,-0.9048,-0.9073,-0.9103,-0.9142,-0.916,-0.9192,-0.9219,-0.9266,-0.9273,-0.9297,-0.9316,-0.9335,-0.9353,-0.934,-0.9341,-0.9342,-0.9393,-0.9388,-0.9392,-0.9363,-0.9363,-0.9364,-0.939,0,-0.8937,-0.899,-0.9015,-0.9058,-0.9087,-0.9109,-0.9136,-0.9167,-0.919,-0.9219,-0.9245,-0.9278,-0.9284,-0.9299,-0.9318,-0.9347,-0.9364,-0.9345,-0.9389,-0.9391,-0.9379,-0.9397,-0.9392,-0.9415,-0.9394,-0.9394,-0.9395,0,-0.8966,-0.8998,-0.9043,-0.9085,-0.9098,-0.9122,-0.916,-0.9187,-0.9223,-0.9239,-0.9266,-0.9285,-0.9319,-0.9317,-0.9366,-0.9353,-0.9372,-0.9389,-0.9391,-0.9396,-0.9394,-0.9404,-0.9423,-0.9426,-0.9401,-0.94,-0.94,0,-0.8963,-0.9017,-0.9051,-0.9069,-0.9118,-0.9134,-0.9156,-0.9192,-0.9214,-0.9248,-0.9263,-0.9301,-0.9322,-0.9351,-0.938,-0.9376,-0.9426,-0.9427,-0.9441,-0.9441,-0.9451,-0.945,-0.9474,-0.9463,-0.9463,-0.9462,-0.9462,0,-0.8982,-0.9009,-0.9051,-0.9072,-0.9104,-0.9133,-0.9164,-0.9188,-0.922,-0.9247,-0.9269,-0.9295,-0.9331,-0.9362,-0.9385,-0.9422,-0.9432,-0.9446,-0.9452,-0.9444,-0.9443,-0.9458,-0.9458,-0.9463,-0.9463,-0.9463,-0.9463,0,-0.8984,-0.9012,-0.9052,-0.9096,-0.9107,-0.9129,-0.9167,-0.919,-0.9214,-0.9249,-0.9259,-0.9297,-0.9334,-0.9366,-0.9415,-0.9431,-0.947,-0.9476,-0.9457,-0.946,-0.9473,-0.9472,-0.9509,-0.9515,-0.9498,-0.9498,-0.9499,0,-0.8994,-0.9016,-0.9062,-0.9081,-0.9102,-0.9133,-0.9156,-0.9186,-0.9209,-0.9252,-0.927,-0.9309,-0.9341,-0.94,-0.9433,-0.9472,-0.948,-0.949,-0.9486,-0.9478,-0.9481,-0.948,-0.9483,-0.949,-0.9491,-0.9491,-0.9491,0,-0.901,-0.9023,-0.9054,-0.909,-0.9116,-0.9147,-0.9178,-0.9193,-0.9229,-0.9254,-0.9292,-0.9317,-0.9367,-0.9406,-0.9448,-0.9472,-0.9488,-0.9492,-0.9497,-0.949,-0.9478,-0.9486,-0.9459,-0.9491,-0.9491,-0.9491,-0.9491,-0.9491,-0.9017,-0.9038,-0.9073,-0.9108,-0.9134,-0.9162,-0.9186,-0.9213,-0.9245,-0.9287,-0.9303,-0.9342,-0.938,-0.9438,-0.9462,-0.9494,-0.9496,-0.9504,-0.9506,-0.9508,-0.9507,-0.9472,-0.9502,-0.9502,-0.9502,-0.9502,-0.9502,0,-0.9035,-0.9059,-0.909,-0.9133,-0.916,-0.9171,-0.9206,-0.9229,-0.9262,-0.9295,-0.9327,-0.9371,-0.9409,-0.9445,-0.9486,-0.9504,-0.9513,-0.9514,-0.9513,-0.9519,-0.9503,-0.9494,-0.9507,-0.9507,-0.9507,-0.9507,-0.9507,-0.9507,-0.9048,-0.9083,-0.9101,-0.915,-0.9175,-0.9212,-0.9232,-0.9259,-0.9285,-0.9333,-0.9365,-0.9388,-0.9423,-0.9466,-0.9501,-0.9511,-0.9525,-0.9525,-0.9537,-0.9521,-0.952,-0.9519,-0.9511,-0.9527,-0.9527,-0.9551,-0.9551,-0.9551]},{"header":{"parameterUnit":"m.s-1","parameterCategory":1,"la1":30.2991,"la2":30.254,"lo1":-89.0895,"lo2":-89.0444,"dy":0.0017,"dx":0.0017,"nx":28,"ny":28,"refTime":"2025-04-16T21:00:00:Z","depth":0,"parameterNumber":3,"parameterNumberName":"V-component_of_WINDS"},"data":[0,0,0,0,0,0,0,0,0,0,0,0,0,0,0,0,0,0,0,0,0,0,0,0,0,0,0,0,0,0,0,0,0,0,0,0,0,0,0,0,0,0,0,0,0,0,0,0,0,0,0,0,0,0,0,0,0,0,6.4696,6.4697,0,6.4808,6.4809,6.481,6.4755,6.4752,6.4749,6.4747,6.4854,6.4859,6.4865,0,0,0,0,0,0,0,0,0,0,0,0,0,6.4427,6.4432,6.4696,6.4697,6.4699,6.4807,6.4809,6.481,6.4756,6.4752,6.4749,6.4745,6.4852,6.4859,6.4865,0,0,0,0,0,0,0,0,0,0,0,0,0,6.4542,6.4434,6.4696,6.4685,6.4685,6.4807,6.4809,6.4811,6.4756,6.4752,6.4748,6.4744,6.485,6.4858,6.4866,6.5003,0,0,6.4891,6.4895,0,0,0,0,0,0,0,0,6.4535,6.4552,6.4685,6.4686,6.4686,6.4763,6.4753,6.4875,6.4757,6.4729,6.4747,6.4742,6.4827,6.4837,6.4867,6.5009,6.5013,6.4892,6.4897,6.4901,6.4903,0,0,0,0,0,0,0,6.4527,6.4546,6.474,6.4687,6.4688,6.4671,6.4683,6.4776,6.48,6.4731,6.4727,6.4742,6.4826,6.4859,6.4869,6.5015,6.4892,6.4899,6.4904,6.4908,6.5271,6.5275,0,0,0,0,0,0,6.4521,6.454,6.4736,6.4743,6.4599,6.468,6.4693,6.4743,6.4799,6.4804,6.4745,6.4739,6.4847,6.4859,6.4872,6.5035,6.4901,6.4909,6.4913,6.5266,6.5272,6.5277,0,0,0,0,0,0,6.4515,6.4539,6.4732,6.4641,6.4664,6.4689,6.4746,6.4747,6.478,6.481,6.4813,6.4775,6.4844,6.4861,6.4971,6.5038,6.4912,6.492,6.5261,6.5268,6.5275,6.5362,0,0,0,0,0,0,6.4508,6.4537,6.4592,6.4643,6.4669,6.4831,6.475,6.4752,6.4795,6.4788,6.4839,6.4843,6.4842,6.4959,6.4979,6.5047,6.4926,6.5255,6.5264,6.5272,6.5353,6.5371,6.5386,0,0,0,0,0,6.4499,6.4611,6.4595,6.4619,6.4738,6.4835,6.485,6.4849,6.4801,6.4854,6.4873,6.4841,6.5028,6.4971,6.4993,6.5064,6.5251,6.5262,6.5272,6.5346,6.5368,6.5386,0,0,0,0,0,0,6.4566,6.4618,6.46,6.4733,6.4781,6.4826,6.4894,6.4872,6.4933,6.4923,6.4916,6.4928,6.5042,6.5064,6.5,6.5198,6.5131,6.5147,6.518,6.5201,6.5217,6.5209,6.4933,0,0,0,0,0,6.4597,6.4674,6.4714,6.4827,6.4852,6.4869,6.4911,6.4906,6.4953,6.4972,6.5,6.5045,6.5113,6.5158,6.5223,6.5356,6.5365,6.5416,6.5433,6.5446,6.5459,6.5528,6.555,6.5312,6.5312,6.5311,0,0,6.466,6.4698,6.4747,6.4841,6.4877,6.4954,6.4886,6.4971,6.5027,6.4985,6.509,6.5112,6.5162,6.5284,6.5338,6.5305,6.5527,6.546,6.547,6.5476,6.5541,6.5564,6.5584,6.5319,6.5317,6.5316,0,0,6.4815,6.4853,6.495,6.4988,6.5043,6.5054,6.5077,6.5126,6.5139,6.5246,6.5215,6.528,6.5399,6.5435,6.5469,6.5635,6.5607,6.5657,6.5743,6.581,6.5829,6.5845,6.5902,6.5923,6.567,6.567,6.567,0,6.4886,6.5003,6.5002,6.5089,6.513,6.5098,6.5194,6.523,6.5303,6.5331,6.5294,6.5441,6.5472,6.5601,6.5641,6.5671,6.5694,6.565,6.5827,6.5843,6.5859,6.5913,6.5934,6.5675,6.5675,6.5674,6.5674,0,6.5087,6.5168,6.524,6.5313,6.5362,6.5454,6.5463,6.5513,6.5503,6.5516,6.5623,6.566,6.573,6.5761,6.5751,6.5887,6.5865,6.5828,6.5759,6.5887,6.5937,6.5958,6.5683,6.5681,6.568,6.5678,0,0,6.5287,6.5358,6.5384,6.5416,6.5475,6.5536,6.5624,6.5695,6.5737,6.5788,6.586,6.596,6.5926,6.5964,6.5958,6.6018,6.6144,6.5973,6.5974,6.6001,6.6293,6.6319,6.6343,6.6126,6.613,6.6134,6.6288,0,6.5444,6.5602,6.5602,6.5746,6.5819,6.5789,6.5865,6.5907,6.5922,6.5984,6.5998,6.6069,6.602,6.6042,6.61,6.6117,6.6202,6.6106,6.619,6.6193,6.6177,6.637,6.6399,6.6543,6.6308,6.6311,6.6314,0,6.5649,6.5708,6.586,6.5906,6.5937,6.6006,6.6069,6.613,6.6176,6.6182,6.6225,6.621,6.6296,6.6227,6.6344,6.6279,6.6313,6.6326,6.6332,6.6338,6.626,6.638,6.6589,6.661,6.6345,6.6343,6.634,0,6.5777,6.5895,6.6,6.6029,6.6085,6.6134,6.616,6.6202,6.6244,6.6298,6.6325,6.6388,6.6423,6.6471,6.6471,6.6421,6.6589,6.652,6.6594,6.6594,6.6629,6.6627,6.6845,6.6655,6.6655,6.6654,6.6654,0,6.5952,6.6045,6.6058,6.6123,6.6225,6.6224,6.6324,6.6345,6.6382,6.6448,6.6425,6.6486,6.6485,6.6546,6.6547,6.6643,6.6659,6.6664,6.6662,6.6665,6.6664,6.6686,6.6675,6.666,6.6659,6.6657,6.6657,0,6.6112,6.6125,6.6237,6.6282,6.6295,6.6369,6.6405,6.6465,6.6477,6.656,6.6579,6.6597,6.6668,6.6675,6.6757,6.6757,6.6872,6.6861,6.6857,6.6854,6.6927,6.6919,6.7165,6.7196,6.6988,6.699,6.6991,0,6.6222,6.6293,6.6345,6.6389,6.6417,6.6487,6.653,6.653,6.6575,6.6632,6.6684,6.6753,6.6809,6.6923,6.6942,6.7004,6.6992,6.7074,6.7001,6.7001,6.6991,6.6986,6.6992,6.7088,6.709,6.7092,6.7094,0,6.6414,6.6417,6.6481,6.6546,6.6598,6.6649,6.6697,6.6733,6.6738,6.6789,6.6863,6.6906,6.699,6.7058,6.7118,6.7141,6.7118,6.7117,6.7136,6.7139,6.7133,6.7135,6.6893,6.7111,6.7109,6.7108,6.7107,6.7106,6.6551,6.6612,6.6658,6.6729,6.6765,6.681,6.6868,6.6887,6.6949,6.7019,6.7014,6.7095,6.7136,6.7215,6.7243,6.7303,6.7275,6.7305,6.7312,6.7319,6.7325,6.7125,6.7315,6.7314,6.7314,6.7313,6.7313,0,6.674,6.6769,6.6834,6.6902,6.6957,6.6932,6.6983,6.703,6.7102,6.7143,6.7199,6.7281,6.7347,6.737,6.7433,6.7477,6.7468,6.7493,6.7489,6.7494,6.7348,6.7323,6.75,6.75,6.75,6.75,6.75,6.75,6.6846,6.6947,6.6954,6.7072,6.7098,6.7179,6.7209,6.7249,6.7282,6.7377,6.7431,6.7447,6.748,6.7545,6.7603,6.7608,6.7631,6.7661,6.7661,6.7524,6.7505,6.7487,6.7464,6.7667,6.7667,6.7802,6.7804,6.7805]}]]